DELTA 1 DEB

Satellite information

Favourite Embed

Satellite Type and Status

DEBRISIN ORBIT

Key statistics

Satellite DELTA 1 DEB at a glance.

Uptime

18288

Days in orbit

Revolutions

≈ 13.6

Per day

Orbit

SSO

Sun Synchronous Orbit

Inclination

99.7

Latest

Satellite identification and parameters

Extended collection of information and parameters for DELTA 1 DEB.

Object identification

Identified? True

Debris? True

Object name: DELTA 1 DEB

International designator: 1975-052HW

Object number (NORAD): 21602

Object ID (CCSDS): 21602

Country: UNITED STATES OF AMERICA (US)

Current information (Y/N): Y

RCS size: SMALL

Orbital parameters

Period: 106.026 minutes

Inclination: 99.6651 deg

SMA: 7420.51 km

Apoapsis: 1097.114 km

Periapsis: 987.637 km

RAAN: 219.4835 deg

Eccentricy: 0.0073766

Argument of periapsis: 319.3091 deg

Mean anomaly: 169.6583 deg

Mean motion: 13.5816362 rev/day

Mean motion (dot): 0.00001283 rev/day2

B* drag term: 0.0018011 1/REarth

Two-line elements (TLE)

Creation date: July 6, 2025, 10:26 p.m.

Reference frame: TEME

Reference center: EARTH

Epoch: July 6, 2025, 3:48 p.m. UTC

TLE line 0: 0 DELTA 1 DEB

TLE line 1: 1 21602U 75052HW 25187.65847345 .00001283 00000-0 18011-2 0 9992

TLE line 2: 2 21602 99.6651 219.4835 0073766 319.3091 169.6583 13.58163620667277

Live tracking on map

Real-time ground track for satellite DELTA 1 DEB.

In-orbit conjunctions

A list of the most updated potential collisions computed for object DELTA 1 DEB.

Target Orbit TCA Probability of collision Miss distance Type
DELTA 1 DEB SSO 2024-12-06 11:51:19 0.0001167419 186.0 (m) DEBRIS

Associated space launch

Experimental meteorological satellite

DELTA 1 DEB was lifted into orbit during the mission ‘Delta 2910 | Nimbus 6’, on board a Delta 2910 space rocket.

The launch took place on June 12, 1975, 8:12 a.m. from Space Launch Complex 2W.

For more information about the launch, click the button.

Launch to space Delta 2910 | Nimbus 6
Delta 2910 | Nimbus 6

Agency: N/A

Status: Launch Successful

Launch date: June 12, 1975, 8:12 a.m. UTC

Rocket: Delta 2910

Launch pad: Space Launch Complex 2W

Location: Vandenberg SFB, CA, USA

...

Latest news about this satellite

There are no fresh news available about this satellite. Check back as we update our databases every day.


Newsletter sign-up

Weekly statistics, charts and insights to help you stay on top of the space industry.